CZ-3C DEB, 40831

Orbit data source: Space-Track

CZ-3C DEB, 40831 is space debris in HEO originally from a launch on Sun, 31 Oct 2010 UTC launched from the Xichang Space Center, China (XSC). Debris objects in space refer to the collection of defunct objects orbiting the Earth. Examples of debris include non-operational satellites, rocket bodies, and fragments generated from explosions, collisions, or faulty payload assembly.

Loading next visibility...
Identifier
40831, 2010-057AY
Orbit
HEO
Country
Flag of CNCN / PRC
Related business
Manufacturer
CALT
Mission
Spacecraft
Bus & Motor
Unknown
Mass
Unknown
Launch date (UTC)
2010-10-31 (16 years ago)
Launch vehicle
Unknown
Launch site
Xichang Space Center, China (XSC)
Object type
Payload
Rocket body
Debris
Shape & HBR
Unknown shape, 1.1 m
Radar Cross Section
Medium (>0.1 m² and <1 m²)

Expand to show TLE details & history
Last TLE update: 1 week ago

TLE from 1 week ago
0 CZ-3C DEB
1 40831U 10057AY  26258.62752691  .00000026  00000-0  11128-2 0  9993
2 40831  20.1901  92.2451 7184110 170.4562 219.7174  2.20874674  2521
Epoch: 2026-09-15T15:03Z
TLE epoch observation values (Epoch: 2026-09-15T15:03:38.325Z)
Latitude
-0.00008°
Longitude
-128.22286°
Altitude
34,925.928 km
Speed
1.816 km/s
True Right ascension
06h 09m 06s
True Declination
0° 00' 00"
Sunlit
Object was in daylight at epoch
Visualization orbit readout
Latitude
Unknown
Longitude
Unknown
Altitude
Unknown
Speed
Unknown
Apparent Right ascension
Unknown
Apparent Declination
Unknown
Sunlit
N/A
Visualization observer readout
Local Sidereal Time
04:08:37
Azimuth
Unknown
Elevation
Unknown
Doppler factor
Unknown
Orbital elements
Apogee altitude
36,428.106 km
Perigee altitude
636.347 km
Semi-major axis
24,910.364 km
Eccentricity
0.71841
Inclination
20.1901°
RAAN
92.2451°
Arg. of periapsis
170.4562°
True anomaly
189.57632°
Mean anomaly
219.7174°
Eccentric anomaly
203.38194°
Mean motion
0.55204 °/min
Orbital period
652.12 mins
BSTAR
0.0011128
Loading maneuver chart data...
Computing Atmospheric mass density...
Loading historical data...
Loading historical data...
Loading historical data...
Loading historical data...
Loading historical data...
Loading historical data...
Loading historical data...

Documentation

Showing up to 5 results
|